Location: Grand Lay
(47.3253°N, 0.9468°E)
Time: 19:41:35
(UTC+00:00)

SJ-6F - Pass Details

Date: 18 January 2026
Orbit: 541 x 570 km, 97.9° (Epoch: 15 February)

Event Time Altitude Azimuth Distance (km) Brightness Sun altitude
Rises 06:59:36 0° 12° (NNE) 2,742 7.8 -6.4°
Reaches altitude 10° 07:01:45 10° 12° (NNE) 1,838 6.9 -6.1°
Maximum altitude 07:05:43 83° 284° (WNW) 558 4.3 -5.5°
Drops below altitude 10° 07:09:38 10° 197° (SSW) 1,807 7.1 -4.9°
Sets 07:11:43 0° 197° (SSW) 2,692 8.0 -4.6°
